This is the latest recevied weather packets stored in our database for station/object KC8YYF. If no packets are shown the sender has not sent any weather packets the latest 10 day(s).
| Time | Temp. | Humidity | Pressure | Rain* | Wind** | Luminosity | Snow |
|---|---|---|---|---|---|---|---|
| 1776967874 | 25° C | 61% | 1015.7 hPa | 0 mm | - | 377 W/m² | - |
| 1776967571 | 24.44° C | 61% | 1015.8 hPa | 0 mm | - | 89 W/m² | - |
| 1776967270 | 24.44° C | 61% | 1015.6 hPa | 0 mm | - | 174 W/m² | - |
| 1776966964 | 24.44° C | 61% | 1015.9 hPa | 0 mm | - | 65 W/m² | - |
| 1776966661 | 25.56° C | 61% | 1015.8 hPa | 0 mm | - | 72 W/m² | - |
| 1776966357 | 25° C | 61% | 1016.2 hPa | 0 mm | - | 694 W/m² | - |
| 1776966052 | 24.44° C | 64% | 1016.1 hPa | 0 mm | - | 702 W/m² | - |
| 1776965749 | 24.44° C | 62% | 1015.9 hPa | 0 mm | - | 702 W/m² | - |
| 1776965447 | 25.56° C | 64% | 1016 hPa | 0 mm | - | 547 W/m² | - |
| 1776965144 | 24.44° C | 63% | 1016.2 hPa | 0 mm | - | 652 W/m² | - |
| 1776964840 | 24.44° C | 65% | 1016.2 hPa | 0 mm | - | 639 W/m² | - |
| 1776964534 | 24.44° C | 63% | 1016.7 hPa | 0 mm | - | 670 W/m² | - |
| 1776964233 | 24.44° C | 66% | 1016.4 hPa | 0 mm | - | 596 W/m² | - |
| 1776963929 | 23.89° C | 67% | 1016.7 hPa | 0 mm | - | 576 W/m² | - |
| 1776963628 | 24.44° C | 69% | 1016.9 hPa | 0 mm | - | 569 W/m² | - |
| 1776963323 | 23.89° C | 67% | 1016.9 hPa | 0 mm | - | 629 W/m² | - |
| 1776963020 | 22.78° C | 67% | 1016.8 hPa | 0 mm | - | 584 W/m² | - |
| 1776962716 | 23.33° C | 67% | 1017 hPa | 0 mm | - | 640 W/m² | - |
| 1776962415 | 23.33° C | 69% | 1017 hPa | 0 mm | - | 598 W/m² | - |
| 1776962110 | 22.22° C | 69% | 1017.1 hPa | 0 mm | - | 623 W/m² | - |
| 1776961805 | 22.78° C | 69% | 1017.2 hPa | 0 mm | - | 615 W/m² | - |
| 1776961503 | 22.78° C | 67% | 1017.3 hPa | 0 mm | - | 650 W/m² | - |
| 1776961203 | 22.22° C | 69% | 1017.2 hPa | 0 mm | - | 224 W/m² | - |
| 1776960898 | 22.22° C | 68% | 1017.5 hPa | 0 mm | - | 564 W/m² | - |
| 1776960593 | 22.22° C | 68% | 1017.1 hPa | 0 mm | - | 573 W/m² | - |
* Rain latest hour (hover to see other rain measurements)
** Current wind speed in m/s (hover to see current wind gust speed)